Location: Icefog Observatory
(64.9000°N, 147.4000°W)
Time: 21:26:08
(UTC-08:00)

ZACube-1 - Visible Passes

Search period start: 18 September 2024 00:00
Search period end: 28 September 2024 00:00
Orbit: 561 x 628 km, 97.7° (Epoch: 18 September)

Date Brightness Start Highest point End Pass type
(mag) Time Alt. Az. Time Alt. Az. Time Alt. Az.
18 Sep ? 03:38:14 10° NE 03:41:15 18° E 03:44:14 10° SE visible
18 Sep ? 05:13:20 10° NNE 05:17:38 75° ESE 05:21:42 11° SSW visible
19 Sep ? 03:47:32 10° NE 03:50:48 21° E 03:54:00 10° SE visible
19 Sep ? 05:22:46 10° NNE 05:27:04 85° ESE 05:31:05 11° SSW visible
20 Sep ? 03:56:49 10° NE 04:00:18 24° E 04:03:42 10° SE visible
20 Sep ? 05:32:11 10° NNE 05:36:27 84° WNW 05:40:27 11° SSW visible
21 Sep ? 04:06:08 10° NNE 04:09:46 27° E 04:13:11 11° SSE visible
21 Sep ? 05:41:34 10° NNE 05:45:50 73° WNW 05:49:48 11° SSW visible
22 Sep ? 04:15:26 10° NNE 04:19:12 31° E 04:22:31 12° SSE visible
22 Sep ? 05:50:58 10° NNE 05:55:10 64° WNW 05:59:08 11° SW visible
23 Sep ? 04:24:43 10° NNE 04:28:37 35° E 04:31:49 14° SSE visible
23 Sep ? 06:00:19 10° NNE 06:04:29 56° WNW 06:08:26 11° SW visible
24 Sep ? 03:00:45 10° ENE 03:01:11 10° ENE 03:01:36 10° E visible
24 Sep ? 04:34:00 10° NNE 04:38:00 40° E 04:41:06 15° SSE visible
24 Sep ? 06:09:40 10° NNE 06:13:45 49° WNW 06:17:43 10° SW visible
25 Sep ? 03:09:07 10° NE 03:10:38 12° ENE 03:12:09 10° E visible
25 Sep ? 04:43:16 10° NNE 04:47:21 46° E 04:50:21 16° S visible
25 Sep ? 06:19:00 10° NNE 06:23:00 43° WNW 06:26:55 10° SW visible
26 Sep ? 03:17:59 10° NE 03:20:03 13° E 03:22:07 10° ESE visible
26 Sep ? 04:52:32 10° NNE 04:56:40 53° ESE 04:59:36 18° S visible
26 Sep ? 06:28:19 10° NNE 06:32:13 38° NW 06:36:02 10° WSW visible
27 Sep ? 03:26:58 10° NE 03:29:28 15° E 03:31:54 10° ESE visible
27 Sep ? 05:01:47 10° NNE 05:05:57 62° ESE 05:08:50 19° S visible
27 Sep ? 06:37:37 10° N 06:41:25 34° NW 06:45:08 10° WSW visible
